Regional Weather Roundup
Issued by NWS

Home | Current Version | Previous Version | Graphics & Text | Print | Product List | Glossary On
Versions: 1 2 3 4 5 6 7 8 9 10 11 12 13 14 15 16 17 18 19 20 21 22 23 24 25 26 27 28 29 30 31 32 33 34 35 36 37 38 39 40 41 42 43 44 45 46 47 48 49 50
000
ASUS43 KDMX 211807
RWRIA

WEATHER ROUNDUP FOR IOWA
NATIONAL WEATHER SERVICE DES MOINES IA
1200 PM CST SUN DEC 21 2014

NOTE: "FAIR" INDICATES FEW OR NO CLOUDS BELOW 12,000 FEET WITH NO
SIGNIFICANT WEATHER AND/OR OBSTRUCTIONS TO VISIBILITY.

* - THESE STATIONS ARE NOT NWS STATIONS...THUS NOT UNDER NWS
QUALITY CONTROL.  THEY ALSO DO NOT REPORT WEATHER SUCH
AS PRECIPITATION OR FOG.

IAZ001>003-012>014-020>022-031>034-043>046-211900-
   NORTHWEST IOWA

CITY           SKY/WX    TMP DP  RH WIND       PRES   REMARKS
CARROLL *      CLOUDY    39  37  93 S26       29.80F FOG     WCI  28
CHEROKEE *     CLOUDY    38  38 100 S14G21    29.76F FOG     WCI  30
DENISON *      CLOUDY    39  39 100 S20G29    29.77F FOG     WCI  30
LE MARS *      CLOUDY    39  39 100 S14       29.73F WCI  31
ORANGE CITY *  CLOUDY    39  37  93 S13       29.72F FOG     WCI  32
SHELDON *      CLOUDY    37  37 100 S14       29.71F WCI  29
SIOUX CITY     CLOUDY    42  38  85 S18       29.74F
6HR MIN TEMP:  37; 6HR MAX TEMP:  42;

SPENCER        FOG       38  36  92 S14       29.75F VSB 1   WCI  30
6HR MIN TEMP:  34; 6HR MAX TEMP:  38;

STORM LAKE *   FOG       37  37 100 S18       29.77F VSB 3/4 WCI  27
$$

IAZ055>058-069>071-079>083-090>094-211900-
   SOUTHWEST IOWA

CITY           SKY/WX    TMP DP  RH WIND       PRES   REMARKS
ATLANTIC *     CLOUDY    39  39 100 S21G28    29.83F FOG     WCI  29
AUDUBON *      SUNNY     39  34  81 S17G25    29.83F HAZE    WCI  30
CLARINDA *     CLOUDY    41  39  93 S15G25    29.89F
COUNCIL BLFS * CLOUDY    39  39 100 S17G28    29.81F FOG     WCI  30
CRESTON *      CLOUDY    39  39 100 S20       29.88F WCI  30
HARLAN  *      CLOUDY    39  39 100 S22       29.85F FOG     WCI  29
LAMONI         CLOUDY    38  37  97 S13G21    29.92F FOG     WCI  30
6HR MIN TEMP:  35; 6HR MAX TEMP:  39;

RED OAK *      CLOUDY    41  39  93 S16G25    29.86F
SHENANDOAH *   CLOUDY    41  39  93 S15       29.87F FOG
$$

IAZ047>049-059>061-072>074-084-211900-
   CENTRAL IOWA

CITY           SKY/WX    TMP DP  RH WIND       PRES   REMARKS
AMES           CLOUDY    39  34  82 S16       29.88F WCI  30
6HR MIN TEMP:  36; 6HR MAX TEMP:  39;

ANKENY *       CLOUDY    39  36  87 S20G29    29.90F WCI  30
CHARITON *     CLOUDY    41  39  93 S13       29.93F
DES MOINES     CLOUDY    42  35  76 S16G25    29.91F
6HR MIN TEMP:  38; 6HR MAX TEMP:  42;

GRINNELL*      CLOUDY    39  36  87 S14G20    29.93F FOG     WCI  31
KNOXVILLE *    CLOUDY    41  37  87 S16       29.92F
MARSHALLTOWN   CLOUDY    39  36  89 S15G25    29.90F WCI  31
6HR MIN TEMP:  36; 6HR MAX TEMP:  39;

PELLA *        CLOUDY    40  37  87 S12G22    29.95F FOG     WCI  34
PERRY *        CLOUDY    39  37  93 S17       29.86F FOG     WCI  30
$$

IAZ004>006-015-016-023>025-035-036-211900-
   NORTH CENTRAL IOWA

CITY           SKY/WX    TMP DP  RH WIND       PRES   REMARKS
ALGONA *       FOG       37  37 100 S21       29.80F VSB 1/2 WCI  27
CLARION *      CLOUDY    37  37 100 S23       29.82F FOG     WCI  26
ESTHERVILLE    FOG       35  35 100 S15       29.76F VSB 1   WCI  25
6HR MIN TEMP:  32; 6HR MAX TEMP:  35;

FORT DODGE *   CLOUDY    37  34  87 S18G25    29.82F WCI  27
MASON CITY     CLOUDY    36  35  96 S18G25    29.85F FOG     WCI  26
6HR MIN TEMP:  33; 6HR MAX TEMP:  36;

FOREST CITY *  CLOUDY    36  34  93 S16       29.82F FOG     WCI  26
IOWA FALLS *   CLOUDY    38  35  89 S25       29.87F WCI  26
$$

IAZ007>011-017>019-026>030-037>042-050>054-066-211900-
   NORTHEAST IOWA

CITY           SKY/WX    TMP DP  RH WIND       PRES   REMARKS
CEDAR RAPIDS   CLOUDY    38  35  89 S15       29.98F WCI  29
6HR MIN TEMP:  35; 6HR MAX TEMP:  39;

CHARLES CITY * CLOUDY    37  37 100 S21G30    29.88F FOG     WCI  27
CLINTON *      CLOUDY    37  34  87 S13       30.07F WCI  29
DECORAH *      CLOUDY    37  36  93 S13G20    29.91F FOG     WCI  29
DUBUQUE        CLOUDY    37  34  89 S18G24    30.00F FOG     WCI  27
6HR MIN TEMP:  33; 6HR MAX TEMP:  37;

MONTICELLO *   CLOUDY    37  37 100 S12       30.00F WCI  30
OELWEIN *      CLOUDY    37  36  93 S20G26    29.93F FOG     WCI  27
WATERLOO       CLOUDY    38  36  92 S17       29.91F WCI  28
6HR MIN TEMP:  35; 6HR MAX TEMP:  38; 6HR PCP: TRACE;

$$

IAZ064-065-067-068-078-211900-
   EAST CENTRAL IOWA

CITY           SKY/WX    TMP DP  RH WIND       PRES   REMARKS
DAVENPORT      CLOUDY    39  32  76 S17       30.04F WCI  30
6HR MIN TEMP:  35; 6HR MAX TEMP:  39;

IOWA CITY      CLOUDY    39  35  86 S13       30.02F WCI  31
6HR MIN TEMP:  36; 6HR MAX TEMP:  39;

MT. PLEASANT * CLOUDY    38  37  93 S12       30.02F WCI  31
MUSCATINE *    CLOUDY    41  36  81 S15       30.03F
QUAD CITIES    CLOUDY    39  34  82 SE12      30.04F WCI  32
6HR MIN TEMP:  35; 6HR MAX TEMP:  39;

$$

IAZ062-063-075>077-085>089-095>099-211900-
   SOUTHEAST IOWA

CITY           SKY/WX    TMP DP  RH WIND       PRES   REMARKS
BURLINGTON     CLOUDY    41  35  79 S15       30.04F
6HR MIN TEMP:  37; 6HR MAX TEMP:  41; 6HR PCP: TRACE;

FAIRFIELD *    CLOUDY    41  36  81 S17       29.99F
FORT MADISON * CLOUDY    41  39  93 SE10G16   30.04F
KEOKUK *       CLOUDY    43  37  81 S9        30.02F
OSKALOOSA *    CLOUDY    39  36  89 S13G18    29.97F FOG     WCI  31
CENTERVILLE *  CLOUDY    41  39  93 S16       29.96F
OTTUMWA        CLOUDY    41  36  82 S14       29.96F
6HR MIN TEMP:  37; 6HR MAX TEMP:  41;

WASHINGTON *   CLOUDY    39  39 100 S14       30.00F WCI  31
$$

ABBREVIATIONS USED IN REMARKS
   TC - TEMPERATURES IN CELSIUS
  WCI - WIND CHILL INDEX
   HX - HEAT INDEX
  VSB - VISIBILITY
$$




USA.gov is the U.S. government's official web portal to all federal, state and local government web resources and services.